Lid_Strength_Index
5 5 6 8 10 7 10 9 11 12 11 9 8 8 7 7 6 6 6 4 4 3 3 2 2 2 1 2 1 1 1 1
6 6 6 7 6 10 10 14 14 14 14 14 10 10 8 8 7 6 5 5 5 4 3 2 2 2 1 1 1 1 1 1
6 8 9 8 9 8 8 9 13 16 14 8 9 9 9 8 7 6 6 5 5 4 3 3 2 2 2 2 2 1 1 1
9 6 6 7 7 8 11 12 12 15 16 8 8 8 7 7 6 6 5 6 4 3 3 3 3 2 2 2 2 1 1 1
10 8 6 8 7 7 7 8 12 14 14 8 7 7 7 7 6 6 5 5 5 4 3 3 3 3 2 2 2 1 1 1
13 10 8 9 8 7 8 10 10 13 12 10 9 8 7 7 6 5 5 5 5 5 5 4 4 3 3 2 1 1 1 1
8 8 8 8 8 8 8 8 13 12 12 10 9 8 7 6 5 5 5 5 4 5 4 4 4 4 4 3 3 2 2 2
9 9 8 9 8 8 8 8 9 11 12 8 7 6 6 6 6 6 5 4 4 3 3 3 3 4 4 4 4 3 3 3
11 8 9 11 9 9 8 7 9 12 11 7 7 7 6 6 5 5 4 4 3 3 3 2 2 2 3 3 3 3 3 3
11 9 14 9 6 7 8 7 7 8 8 7 6 5 5 4 4 4 4 3 3 3 3 2 3 2 1 1 1 2 3 3
12 12 9 9 8 8 8 8 6 7 7 6 6 5 5 4 3 3 3 3 3 2 2 1 2 1 1 1 1 1 1 1
10 12 14 9 6 6 6 9 5 6 6 6 5 9 7 4 3 4 3 3 3 3 2 2 1 1 1 1 1 2 1 1
10 11 9 6 6 5 10 9 5 5 5 5 6 6 4 3 3 3 3 3 3 3 3 2 2 2 1 1 2 1 0 0
9 11 13 5 6 8 7 5 4 4 4 5 4 4 4 4 4 4 4 4 3 3 3 3 2 2 2 2 1 0 0 1
10 10 5 4 5 4 4 5 4 4 4 3 4 4 4 4 4 4 4 4 4 4 4 3 2 3 3 2 1 0 1 1
8 7 6 5 4 3 3 4 3 3 3 3 3 3 3 4 4 4 4 4 4 4 4 4 3 3 3 2 2 1 1 1
8 6 5 5 4 4 3 3 3 3 3 3 3 4 3 3 3 3 3 3 3 3 3 4 3 3 3 3 3 3 3 2
10 5 5 5 3 3 3 4 3 3 3 3 3 3 3 3 3 3 3 3 3 3 3 3 3 3 3 3 3 4 4 3
6 4 3 3 3 2 3 3 2 2 3 3 2 2 2 3 2 3 3 3 3 3 3 3 3 4 3 3 3 4 5 4